Location: Champs
(48.8539°N, 2.6040°E)
Time: 12:42:35
(UTC+00:00)

Cosmos 1833 - Pass Details

Date: 26 October 2021
Orbit: 833 x 865 km, 70.9° (Epoch: 06 December)

Event Time Altitude Azimuth Distance (km) Brightness Sun altitude
Exits shadow 04:04:04 28° 194° (SSW) 1,527 5.3 -24.1°
Maximum altitude 04:07:07 74° 115° (ESE) 873 4.3 -23.6°
Drops below altitude 10° 04:12:44 10° 31° (NNE) 2,454 7.1 -22.6°
Sets 04:15:10 0° 30° (NNE) 3,391 7.9 -22.2°
